Location: Caltech
(34.1382°N, 118.1253°W)
Time: 14:10:23
(UTC-07:00)

PANSAT - Visible Passes

Search period start: 29 May 2016 00:00
Search period end: 08 June 2016 00:00
Orbit: 479 x 486 km, 28.5° (Epoch: 28 May)

Date Brightness Start Highest point End Pass type
(mag) Time Alt. Az. Time Alt. Az. Time Alt. Az.
29 May 9.8 21:48:05 10° SW 21:49:27 14° SW 21:49:27 14° SW visible
30 May 9.6 21:19:16 10° SW 21:21:24 14° SSW 21:22:06 14° S visible
31 May 9.7 20:50:28 10° SW 20:52:33 14° SSW 20:54:38 10° SSE visible
